Holyoke AP, Holyoke, CO, CO

1:41 PM MDT on May 21, 2018 (GMT -0600)
Holyoke Municipal

Weather History for KHEQ - January, 2014

Change the Weather History Date:

Monday, January 13, 2014

  Actual Average Record
Temperature  
Mean Temperature 36 °F -  
Max Temperature 53 °F 40 °F 55 °F (2016)
Min Temperature 19 °F 12 °F 14 °F (2017)
Degree Days  
Heating Degree Days 29    
Moisture  
Dew Point 20 °F    
Average Humidity 49    
Maximum Humidity 80    
Minimum Humidity 26    
Precipitation  
Precipitation 0.00 in - - ()
Sea Level Pressure  
Sea Level Pressure 29.87 in    
Wind  
Wind Speed 14 mph (WNW)    
Max Wind Speed 25 mph    
Max Gust Speed 38 mph    
Visibility 10 miles    
Events      
Averages and records for this station are not official NWS values.
T = Trace of Precipitation, MM = Missing Value Source: NWS Daily Summary

Daily Weather History Graph

Daily Weather History Graph

Search for Another Location

Airport or City:

Astronomy

Jan. 13, 2014 Rise Set
Actual Time 7:11 AM MST 4:44 PM MST
Civil Twilight 6:41 AM MST 5:14 PM MST
Nautical Twilight 6:07 AM MST 5:48 PM MST
Astronomical Twilight 5:34 AM MST 6:21 PM MST
Moon 3:01 PM MST (1/13) 5:01 AM MST (1/13)
Length of Visible Light 10h 33m
Length of Day
9h 33m
Waxing Gibbous, 95% of the Moon is Illuminated
Jan 13
Waxing Gibbous
Jan 15
Full
Jan 23
Last Quarter
Jan 30
New
Feb 6
First Quarter

Hourly Weather History & Observations

Time (MST) Temp. Windchill Dew Point Humidity Pressure Visibility Wind Dir Wind Speed Gust Speed Precip Events Conditions
12:15 AM 33.8 °F 23.5 °F 23.0 °F 65% 29.88 in 10.0 mi WNW 16.1 mph 23.0 mph N/A   Clear
12:35 AM 33.8 °F 24.3 °F 21.2 °F 60% 29.88 in 10.0 mi WNW 13.8 mph 23.0 mph N/A   Clear
12:55 AM 33.8 °F 23.5 °F 21.2 °F 60% 29.89 in 10.0 mi WNW 16.1 mph 23.0 mph N/A   Clear
1:15 AM 33.8 °F 23.9 °F 21.2 °F 60% 29.89 in 10.0 mi WNW 15.0 mph 20.7 mph N/A   Clear
1:35 AM 33.8 °F 24.3 °F 21.2 °F 60% 29.90 in 10.0 mi WNW 13.8 mph 19.6 mph N/A   Clear
1:55 AM 32.0 °F 22.1 °F 19.4 °F 60% 29.90 in 10.0 mi WNW 13.8 mph 19.6 mph N/A   Clear
2:15 AM 32.0 °F 23.0 °F 19.4 °F 60% 29.91 in 10.0 mi WNW 11.5 mph - N/A   Clear
2:35 AM 30.2 °F 20.8 °F 17.6 °F 60% 29.92 in 10.0 mi West 11.5 mph - N/A   Clear
2:55 AM 28.4 °F 19.1 °F 17.6 °F 64% 29.91 in 10.0 mi West 10.4 mph - N/A   Clear
3:15 AM 30.2 °F 21.9 °F 17.6 °F 60% 29.91 in 10.0 mi WNW 9.2 mph - N/A   Clear
3:35 AM 24.8 °F 15.3 °F 15.8 °F 69% 29.91 in 10.0 mi West 9.2 mph - N/A   Clear
3:55 AM 21.2 °F 12.6 °F 14.0 °F 74% 29.91 in 10.0 mi West 6.9 mph - N/A   Clear
4:15 AM 19.4 °F 11.5 °F 14.0 °F 80% 29.90 in 10.0 mi West 5.8 mph - N/A   Clear
4:35 AM 21.2 °F 12.6 °F 14.0 °F 74% 29.90 in 10.0 mi WSW 6.9 mph - N/A   Clear
4:55 AM 19.4 °F 8.6 °F 14.0 °F 80% 29.89 in 10.0 mi West 9.2 mph - N/A   Clear
5:15 AM 19.4 °F 7.9 °F 14.0 °F 80% 29.89 in 10.0 mi West 10.4 mph - N/A   Clear
5:35 AM 26.6 °F 16.8 °F 17.6 °F 69% 29.89 in 10.0 mi WNW 10.4 mph - N/A   Clear
5:55 AM 26.6 °F 19.1 °F 17.6 °F 69% 29.89 in 10.0 mi West 6.9 mph - N/A   Clear
6:15 AM 24.8 °F 16.1 °F 17.6 °F 74% 29.88 in 10.0 mi SW 8.1 mph - N/A   Clear
6:35 AM 26.6 °F 20.0 °F 17.6 °F 69% 29.87 in 10.0 mi WSW 5.8 mph - N/A   Clear
6:55 AM 24.8 °F 16.1 °F 17.6 °F 74% 29.88 in 10.0 mi WSW 8.1 mph - N/A   Clear
7:15 AM 24.8 °F 16.9 °F 17.6 °F 74% 29.87 in 10.0 mi WSW 6.9 mph - N/A   Clear
7:35 AM 26.6 °F 18.2 °F 17.6 °F 69% 29.88 in 10.0 mi WSW 8.1 mph - N/A   Scattered Clouds
7:55 AM 26.6 °F 17.5 °F 19.4 °F 74% 29.89 in 10.0 mi SW 9.2 mph - N/A   Clear
8:15 AM 28.4 °F 18.5 °F 17.6 °F 64% 29.89 in 10.0 mi WSW 11.5 mph - N/A   Clear
8:35 AM 32.0 °F 22.5 °F 19.4 °F 60% 29.89 in 10.0 mi WSW 12.7 mph - N/A   Scattered Clouds
8:55 AM 33.8 °F 24.8 °F 19.4 °F 56% 29.89 in 10.0 mi West 12.7 mph - N/A   Mostly Cloudy
9:15 AM 33.8 °F 24.3 °F 19.4 °F 56% 29.90 in 10.0 mi WSW 13.8 mph - N/A   Overcast
9:35 AM 33.8 °F 24.8 °F 19.4 °F 56% 29.89 in 10.0 mi WSW 12.7 mph - N/A   Overcast
9:55 AM 41.0 °F 32.5 °F 19.4 °F 42% 29.90 in 10.0 mi West 17.3 mph 21.9 mph N/A   Overcast
10:15 AM 42.8 °F 34.3 °F 19.4 °F 39% 29.89 in 10.0 mi WNW 19.6 mph 27.6 mph N/A   Overcast
10:35 AM 46.4 °F 39.0 °F 19.4 °F 34% 29.88 in 10.0 mi WNW 19.6 mph 27.6 mph N/A   Mostly Cloudy
10:55 AM 46.4 °F 38.7 °F 19.4 °F 34% 29.87 in 10.0 mi WNW 20.7 mph 32.2 mph N/A   Mostly Cloudy
11:15 AM 46.4 °F 39.8 °F 19.4 °F 34% 29.86 in 10.0 mi WNW 16.1 mph 29.9 mph N/A   Overcast
11:35 AM 48.2 °F - 19.4 °F 32% 29.85 in 7.0 mi WNW 18.4 mph 28.8 mph N/A   Overcast
11:55 AM 50.0 °F - 19.4 °F 30% 29.84 in 10.0 mi WNW 18.4 mph 26.5 mph N/A   Overcast
12:15 PM 51.8 °F - 21.2 °F 30% 29.83 in 10.0 mi WNW 16.1 mph 26.5 mph N/A   Overcast
12:35 PM 51.8 °F - 19.4 °F 28% 29.82 in 10.0 mi NW 23.0 mph 31.1 mph N/A   Overcast
12:55 PM 53.6 °F - 21.2 °F 28% 29.81 in 10.0 mi NW 20.7 mph 33.4 mph N/A   Overcast
1:15 PM 53.6 °F - 21.2 °F 28% 29.81 in 10.0 mi NW 21.9 mph 33.4 mph N/A   Overcast
1:35 PM 53.6 °F - 19.4 °F 26% 29.81 in 10.0 mi NW 20.7 mph 34.5 mph N/A   Overcast
1:55 PM 53.6 °F - 19.4 °F 26% 29.81 in 10.0 mi WNW 25.3 mph 34.5 mph N/A   Overcast
2:15 PM 53.6 °F - 21.2 °F 28% 29.81 in 10.0 mi WNW 21.9 mph 38.0 mph N/A   Overcast
2:35 PM 53.6 °F - 19.4 °F 26% 29.82 in 10.0 mi WNW 21.9 mph 29.9 mph N/A   Overcast
2:55 PM 53.6 °F - 21.2 °F 28% 29.83 in 10.0 mi NW 19.6 mph 34.5 mph N/A   Overcast
3:15 PM 53.6 °F - 21.2 °F 28% 29.83 in 10.0 mi WNW 20.7 mph 31.1 mph N/A   Overcast
3:35 PM 53.6 °F - 21.2 °F 28% 29.84 in 7.0 mi NW 19.6 mph 27.6 mph N/A   Overcast
3:55 PM 53.6 °F - 21.2 °F 28% 29.83 in 7.0 mi NW 18.4 mph 26.5 mph N/A   Overcast
4:15 PM 53.6 °F - 23.0 °F 30% 29.84 in 7.0 mi WNW 18.4 mph 26.5 mph N/A   Mostly Cloudy
4:35 PM 53.6 °F - 23.0 °F 30% 29.83 in 5.0 mi NW 24.2 mph 35.7 mph N/A   Haze
4:55 PM 51.8 °F - 21.2 °F 30% 29.84 in 4.0 mi WNW 19.6 mph 32.2 mph N/A   Haze
5:15 PM 51.8 °F - 21.2 °F 30% 29.84 in 7.0 mi WNW 20.7 mph 32.2 mph N/A   Mostly Cloudy
5:35 PM 50.0 °F - 21.2 °F 32% 29.84 in 10.0 mi WNW 19.6 mph 28.8 mph N/A   Mostly Cloudy
5:55 PM 48.2 °F - 21.2 °F 34% 29.83 in 10.0 mi WNW 19.6 mph 28.8 mph N/A   Scattered Clouds
6:15 PM 46.4 °F 40.1 °F 21.2 °F 37% 29.84 in 10.0 mi WNW 15.0 mph 25.3 mph N/A   Clear
6:35 PM 46.4 °F 40.4 °F 21.2 °F 37% 29.85 in 10.0 mi West 13.8 mph - N/A   Clear
6:55 PM 41.0 °F 34.3 °F 21.2 °F 45% 29.85 in 10.0 mi West 11.5 mph - N/A   Scattered Clouds
7:15 PM 42.8 °F 36.2 °F 21.2 °F 42% 29.85 in 10.0 mi West 12.7 mph - N/A   Scattered Clouds
7:35 PM 42.8 °F 35.4 °F 21.2 °F 42% 29.85 in 10.0 mi West 15.0 mph - N/A   Mostly Cloudy
7:55 PM 42.8 °F 34.8 °F 21.2 °F 42% 29.85 in 10.0 mi West 17.3 mph - N/A   Mostly Cloudy
8:15 PM 42.8 °F 35.1 °F 21.2 °F 42% 29.85 in 10.0 mi West 16.1 mph - N/A   Mostly Cloudy
8:35 PM 42.8 °F 34.8 °F 21.2 °F 42% 29.85 in 10.0 mi West 17.3 mph 25.3 mph N/A   Scattered Clouds
8:55 PM 44.6 °F 36.9 °F 21.2 °F 39% 29.86 in 10.0 mi WNW 18.4 mph 25.3 mph N/A   Mostly Cloudy
9:15 PM 46.4 °F 39.5 °F 21.2 °F 37% 29.87 in 10.0 mi WNW 17.3 mph 27.6 mph N/A   Mostly Cloudy
9:35 PM 44.6 °F 37.4 °F 21.2 °F 39% 29.89 in 10.0 mi WNW 16.1 mph 24.2 mph N/A   Mostly Cloudy
9:55 PM 44.6 °F 38.8 °F 21.2 °F 39% 29.90 in 10.0 mi WNW 11.5 mph 18.4 mph N/A   Scattered Clouds
10:15 PM 42.8 °F 36.6 °F 21.2 °F 42% 29.91 in 10.0 mi NW 11.5 mph 18.4 mph N/A   Scattered Clouds
10:35 PM 42.8 °F 34.5 °F 23.0 °F 46% 29.92 in 10.0 mi NW 18.4 mph 25.3 mph N/A   Mostly Cloudy
10:55 PM 44.6 °F 36.4 °F 26.6 °F 49% 29.94 in 10.0 mi NNW 20.7 mph 25.3 mph N/A   Overcast
11:15 PM 42.8 °F 35.4 °F 32.0 °F 66% 29.94 in 10.0 mi NW 15.0 mph 24.2 mph N/A   Scattered Clouds
11:35 PM 42.8 °F 34.8 °F 32.0 °F 66% 29.92 in 10.0 mi NW 17.3 mph - N/A   Clear
11:55 PM 42.8 °F 35.8 °F 32.0 °F 66% 29.92 in 10.0 mi NW 13.8 mph 19.6 mph N/A   Clear